Weather History for Cairns Airport, Queensland

Change the Weather History Date:

Sunday, July 7, 2013

  Actual Average Record
Temperature  
Mean Temperature 77 °F -  
Max Temperature 82 °F 78 °F - ()
Min Temperature 72 °F 62 °F - ()
Cooling Degree Days 12    
Growing Degree Days 27 (Base 50)    
Moisture  
Dew Point 67 °F    
Average Humidity 73    
Maximum Humidity 88    
Minimum Humidity 53    
Precipitation  
Precipitation 0.00 in 0.03 in - ()
Sea Level Pressure  
Sea Level Pressure 30.05 in    
Wind  
Wind Speed 13 mph ()    
Max Wind Speed 24 mph    
Max Gust Speed -    
Visibility 6.8 miles    
Events Rain    
T = Trace of Precipitation, MM = Missing Value Source: Averaged Metar Reports

Daily Weather History Graph

Daily Weather History Graph

Search for Another Location

Airport:

Trip Planner

Search our weather history database for the weather conditions in past years. The results will help you decide how hot, cold, wet, or windy it might be!

Date:

Astronomy

Jul. 07, 2013 Rise Set
Actual Time 6:47 AM AEST 5:56 PM AEST
Civil Twilight 6:23 AM AEST 6:20 PM AEST
Nautical Twilight 5:56 AM AEST 6:47 PM AEST
Astronomical Twilight 5:30 AM AEST 7:13 PM AEST
Moon 5:37 AM AEST (7/7) 5:08 PM AEST (7/7)
Length of Visible Light 11h 56m
Length of Day
11h 09m
Waning Crescent, 1% of the Moon is Illuminated
Jul 7
Waning Crescent
Jul 8
New
Jul 16
First Quarter
Jul 23
Full
Jul 30
Last Quarter

Hourly Weather History & Observations

Time (AEST) Temp. Heat Index Dew Point Humidity Pressure Visibility Wind Dir Wind Speed Gust Speed Precip Events Conditions
12:00 AM 73 °F - 68 °F 79% 30.06 in - South 8.1 mph - -   Overcast
12:00 AM 73.4 °F - 68.0 °F 83% 30.04 in 6.2 mi South 8.1 mph - N/A   Overcast
12:30 AM 73.4 °F - 68.0 °F 83% 30.04 in 6.2 mi South 12.7 mph - N/A   Overcast
1:00 AM 73 °F - 68 °F 79% 30.05 in - South 12.7 mph - -  
1:00 AM 73.4 °F - 68.0 °F 83% 30.04 in 6.2 mi South 12.7 mph - N/A   Mostly Cloudy
1:30 AM 73.4 °F - 68.0 °F 83% 30.04 in 6.2 mi South 13.8 mph - N/A   Light Drizzle
2:00 AM 73.4 °F - 68.0 °F 83% 30.04 in 6.2 mi South 10.4 mph - N/A   Mostly Cloudy
2:30 AM 73.4 °F - 68.0 °F 83% 30.01 in 6.2 mi South 11.5 mph - N/A   Overcast
3:00 AM 73 °F - 68 °F 81% 30.03 in - SSE 9.2 mph - -   Overcast
3:00 AM 73.4 °F - 68.0 °F 83% 30.01 in 6.2 mi SSE 9.2 mph - N/A   Overcast
3:30 AM 73.4 °F - 68.0 °F 83% 30.01 in 6.2 mi SSE 11.5 mph - N/A   Overcast
3:41 AM 73.4 °F - 68.0 °F 83% 30.01 in 3.1 mi SSE 11.5 mph - N/A   Light Drizzle
4:00 AM 74 °F - 68 °F 78% 30.03 in - SSE 11.5 mph - -  
4:00 AM 75.2 °F - 68.0 °F 78% 30.01 in 6.2 mi SSE 11.5 mph - N/A   Mostly Cloudy
4:30 AM 75.2 °F - 68.0 °F 78% 30.01 in 6.2 mi South 11.5 mph - N/A   Mostly Cloudy
5:00 AM 75.2 °F - 68.0 °F 78% 30.01 in 6.2 mi South 10.4 mph - N/A   Mostly Cloudy
5:30 AM 73.4 °F - 69.8 °F 88% 30.04 in 3.7 mi SSE 12.7 mph - N/A   Light Drizzle
6:00 AM 73 °F - 70 °F 87% 30.04 in 12 mi SSE 9.2 mph - -   Mostly Cloudy
6:00 AM 73.4 °F - 69.8 °F 88% 30.04 in 6.2 mi SSE 9.2 mph - N/A   Mostly Cloudy
6:30 AM 73.4 °F - 69.8 °F 88% 30.04 in 6.2 mi SSE 10.4 mph - N/A   Mostly Cloudy
7:00 AM 73 °F - 70 °F 86% 30.06 in - SE 9.2 mph - -  
7:00 AM 73.4 °F - 69.8 °F 88% 30.04 in 6.2 mi SE 9.2 mph - N/A   Mostly Cloudy
7:30 AM 73.4 °F - 69.8 °F 88% 30.06 in 6.2 mi SSE 10.4 mph - N/A   Mostly Cloudy
8:00 AM 75.2 °F - 68.0 °F 78% 30.06 in 6.2 mi SSE 15.0 mph - N/A   Scattered Clouds
8:30 AM 75.2 °F - 68.0 °F 78% 30.06 in 6.2 mi SE 15.0 mph - N/A   Scattered Clouds
9:00 AM 77 °F - 68 °F 66% 30.09 in 16 mi SE 17.3 mph - -   Partly Cloudy
9:00 AM 77.0 °F - 68.0 °F 74% 30.09 in 6.2 mi SE 17.3 mph - N/A   Scattered Clouds
9:30 AM 78.8 °F - 69.8 °F 74% 30.09 in 6.2 mi SE 18.4 mph - N/A   Mostly Cloudy
10:00 AM 81 °F - 68 °F 57% 30.10 in - SE 17.3 mph - -  
10:00 AM 80.6 °F 83.2 °F 68.0 °F 65% 30.09 in 6.2 mi SE 17.3 mph - N/A   Scattered Clouds
10:30 AM 82.4 °F 85.4 °F 68.0 °F 62% 30.09 in 6.2 mi SSE 19.6 mph - N/A   Scattered Clouds
11:00 AM 82.4 °F 84.6 °F 66.2 °F 58% 30.06 in 6.2 mi SSE 19.6 mph - N/A   Scattered Clouds
11:30 AM 82.4 °F 85.4 °F 68.0 °F 62% 30.06 in 6.2 mi SE 17.3 mph - N/A   Partly Cloudy
12:00 PM 81 °F - 67 °F 53% 30.07 in 19 mi SE 20.7 mph - -   Partly Cloudy
12:00 PM 80.6 °F 82.7 °F 66.2 °F 61% 30.06 in 6.2 mi SE 20.7 mph - N/A   Scattered Clouds
12:30 PM 82.4 °F 85.4 °F 68.0 °F 62% 30.04 in 6.2 mi SE 19.6 mph - N/A   Scattered Clouds
1:00 PM 81 °F - 67 °F 54% 30.05 in - SE 21.9 mph - -  
1:00 PM 80.6 °F 83.2 °F 68.0 °F 65% 30.04 in 6.2 mi SE 21.9 mph - N/A   Scattered Clouds
1:30 PM 82.4 °F 84.6 °F 66.2 °F 58% 30.04 in 6.2 mi SE 19.6 mph - N/A   Scattered Clouds
2:00 PM 80.6 °F 82.7 °F 66.2 °F 61% 30.01 in 6.2 mi SE 19.6 mph - N/A   Partly Cloudy
2:30 PM 82.4 °F 85.4 °F 68.0 °F 62% 30.01 in 6.2 mi SE 20.7 mph - N/A   Partly Cloudy
3:00 PM 81 °F - 67 °F 54% 30.01 in 16 mi SE 20.7 mph - -   Scattered Clouds
3:00 PM 80.6 °F 83.2 °F 68.0 °F 65% 30.01 in 6.2 mi SE 20.7 mph - N/A   Partly Cloudy
3:30 PM 78.8 °F - 68.0 °F 69% 30.01 in 6.2 mi SE 20.7 mph - N/A   Partly Cloudy
4:00 PM 79 °F - 68 °F 60% 30.02 in - SE 20.7 mph - -  
4:00 PM 78.8 °F - 68.0 °F 69% 30.01 in 6.2 mi SE 20.7 mph - N/A   Partly Cloudy
4:30 PM 78.8 °F - 68.0 °F 69% 30.01 in 6.2 mi SE 23.0 mph - N/A   Partly Cloudy
5:00 PM 77.0 °F - 66.2 °F 69% 30.01 in 6.2 mi SE 24.2 mph - N/A   Partly Cloudy
5:30 PM 75.2 °F - 66.2 °F 73% 30.04 in 6.2 mi SE 21.9 mph - N/A   Partly Cloudy
6:00 PM 75 °F - 66 °F 67% 30.06 in - SE 20.7 mph - -  
6:00 PM 75.2 °F - 66.2 °F 73% 30.04 in 6.2 mi SE 20.7 mph - N/A   Partly Cloudy
6:30 PM 75.2 °F - 66.2 °F 73% 30.06 in 6.2 mi SE 20.7 mph - N/A   Scattered Clouds
7:00 PM 75 °F - 65 °F 65% 30.08 in - SE 19.6 mph - -  
7:00 PM 75.2 °F - 66.2 °F 73% 30.06 in 6.2 mi SE 19.6 mph - N/A   Scattered Clouds
7:30 PM 75.2 °F - 64.4 °F 69% 30.09 in 6.2 mi SE 19.6 mph - N/A   Scattered Clouds
8:00 PM 75.2 °F - 64.4 °F 69% 30.09 in 6.2 mi SE 20.7 mph - N/A   Scattered Clouds
8:30 PM 73.4 °F - 64.4 °F 73% 30.09 in 6.2 mi SSE 20.7 mph - N/A   Scattered Clouds
9:00 PM 73 °F - 64 °F 67% 30.12 in - SSE 16.1 mph - -  
9:00 PM 73.4 °F - 64.4 °F 73% 30.12 in 6.2 mi SSE 16.1 mph - N/A   Partly Cloudy
9:30 PM 73.4 °F - 64.4 °F 73% 30.12 in 6.2 mi South 13.8 mph - N/A   Partly Cloudy
10:00 PM 72 °F - 65 °F 74% 30.14 in - South 13.8 mph - -  
10:00 PM 73.4 °F - 66.2 °F 78% 30.12 in 6.2 mi South 13.8 mph - N/A   Scattered Clouds
10:30 PM 73.4 °F - 64.4 °F 73% 30.12 in 6.2 mi South 13.8 mph - N/A   Scattered Clouds
11:00 PM 73.4 °F - 64.4 °F 73% 30.12 in 6.2 mi South 15.0 mph - N/A   Mostly Cloudy
11:30 PM 73.4 °F - 64.4 °F 73% 30.12 in 6.2 mi SSE 17.3 mph - N/A Rain Light Rain Showers